Temperature
4 5 4 5 5 4 4 4 4 4 4 4 4 4 4 4 4 4 5 5 5 5 5 5 5 5 5 5 5 5 5 5 5 6 6 6 7 7 7 8 8 8 8
3 3 4 4 4 4 4 4 4 4 4 4 4 4 4 4 4 4 4 4 4 4 4 4 4 4 4 4 4 4 4 4 4 4 5 5 5 6 6 7 7 7 8
3 3 3 3 3 3 3 3 3 3 3 3 3 3 3 3 3 3 3 3 3 4 4 4 4 4 4 4 4 4 4 4 4 4 4 4 4 4 5 6 6 7 7
2 2 2 2 2 2 3 3 3 3 3 2 2 2 2 2 3 3 3 3 3 3 3 3 3 3 3 3 3 3 3 3 3 4 4 4 4 4 4 5 6 6 6
1 1 1 1 2 2 2 2 2 2 2 2 2 2 2 2 2 2 2 2 2 2 2 2 3 2 2 2 2 3 3 3 3 3 3 3 4 4 4 4 4 5 6
-0 0 0 1 1 1 1 1 1 1 1 1 1 1 1 1 1 1 1 1 2 2 2 2 2 2 2 2 2 2 2 2 2 2 3 3 3 3 4 3 4 4 5
-1 -1 -0 -0 0 0 0 0 0 0 0 0 0 0 0 0 0 1 1 1 1 1 1 1 1 1 1 1 1 2 2 2 2 2 2 2 3 3 3 3 3 3 4
-2 -2 -1 -1 -1 -1 -1 -1 -1 -0 -0 -1 -0 -1 -1 -0 -0 -0 0 0 0 0 1 1 1 1 1 1 1 1 1 1 1 1 2 2 2 2 2 3 3 2 3
-2 -2 -2 -2 -2 -2 -1 -1 -1 -1 -1 -1 -1 -1 -1 -1 -1 -1 -1 -1 -0 -0 -0 -0 0 0 0 0 0 0 0 0 1 1 1 1 1 2 2 2 2 2 2
-3 -3 -3 -2 -2 -2 -2 -2 -2 -2 -2 -2 -2 -2 -2 -2 -2 -2 -1 -1 -1 -1 -1 -1 -1 -1 -0 -0 -0 -0 -0 -0 0 0 0 1 1 1 1 1 1 2 2
-3 -3 -3 -3 -3 -3 -3 -3 -3 -2 -2 -2 -2 -2 -2 -2 -2 -2 -2 -2 -2 -2 -2 -2 -1 -1 -1 -1 -1 -1 -1 -1 -0 -0 -0 0 0 0 0 0 1 1 1
-4 -4 -4 -4 -3 -3 -3 -3 -3 -3 -3 -3 -3 -3 -3 -3 -3 -3 -3 -3 -2 -2 -2 -2 -2 -2 -2 -1 -1 -1 -1 -1 -1 -1 -1 -0 -0 -0 -0 -0 0 1 1
-5 -5 -4 -4 -4 -4 -4 -4 -4 -4 -4 -4 -4 -4 -4 -4 -4 -3 -3 -3 -3 -3 -3 -3 -3 -2 -2 -2 -2 -2 -2 -2 -1 -1 -1 -1 -1 -1 -1 -0 -0 -0 0
-5 -5 -5 -5 -5 -5 -5 -5 -5 -4 -4 -4 -4 -4 -4 -4 -4 -4 -4 -4 -4 -4 -3 -3 -3 -3 -3 -3 -3 -2 -2 -2 -2 -2 -2 -1 -1 -1 -1 -1 -1 -1 -1
-6 -6 -6 -6 -6 -6 -5 -5 -5 -5 -5 -5 -5 -5 -5 -5 -5 -4 -4 -4 -4 -4 -4 -4 -4 -4 -3 -3 -3 -3 -3 -3 -2 -2 -2 -2 -2 -2 -2 -2 -1 -1 -1
-7 -7 -7 -7 -7 -6 -6 -6 -6 -6 -6 -5 -5 -5 -5 -5 -5 -5 -5 -5 -5 -5 -5 -5 -4 -4 -4 -4 -4 -4 -4 -3 -3 -3 -3 -3 -2 -2 -2 -2 -2 -2 -2
-8 -8 -8 -8 -7 -7 -7 -7 -6 -6 -6 -6 -6 -6 -6 -6 -5 -5 -5 -5 -5 -5 -5 -5 -5 -5 -4 -4 -4 -4 -4 -4 -4 -4 -4 -3 -3 -3 -3 -2 -2 -2 -2
-9 -8 -8 -8 -8 -7 -7 -7 -7 -7 -7 -7 -7 -6 -6 -6 -6 -6 -6 -6 -6 -6 -6 -6 -5 -5 -5 -5 -5 -5 -5 -5 -4 -4 -4 -4 -4 -3 -3 -3 -3 -3 -3
-9 -9 -9 -9 -8 -8 -8 -8 -7 -7 -7 -7 -7 -7 -7 -7 -7 -7 -6 -6 -6 -6 -6 -6 -6 -6 -5 -5 -5 -5 -5 -5 -5 -5 -5 -5 -4 -4 -4 -4 -4 -3 -3
-9 -9 -9 -9 -9 -8 -8 -8 -8 -8 -8 -8 -8 -8 -8 -7 -7 -7 -7 -7 -7 -7 -7 -6 -6 -6 -6 -6 -6 -6 -6 -6 -6 -5 -5 -5 -5 -5 -4 -4 -4 -4 -3
-10 -10 -9 -9 -9 -9 -9 -9 -9 -9 -9 -8 -8 -8 -8 -8 -8 -8 -8 -7 -7 -7 -7 -7 -7 -7 -6 -6 -6 -6 -6 -6 -6 -6 -6 -5 -5 -5 -5 -5 -5 -4 -4
-10 -10 -10 -10 -10 -10 -9 -9 -9 -9 -9 -9 -9 -8 -8 -8 -8 -8 -8 -8 -8 -8 -8 -8 -7 -7 -7 -7 -7 -7 -7 -7 -7 -6 -6 -6 -6 -5 -5 -5 -5 -5 -5
-11 -11 -10 -10 -10 -10 -10 -10 -10 -10 -9 -9 -9 -9 -9 -9 -9 -9 -9 -9 -9 -9 -9 -9 -8 -8 -8 -8 -8 -7 -7 -7 -7 -7 -7 -7 -7 -6 -6 -6 -6 -5 -5
-11 -11 -11 -11 -10 -10 -11 -10 -10 -10 -10 -10 -10 -9 -9 -9 -9 -9 -10 -10 -10 -10 -9 -9 -9 -9 -9 -8 -8 -8 -8 -7 -8 -8 -7 -7 -7 -7 -7 -6 -6 -6 -6
-12 -12 -11 -11 -11 -11 -11 -11 -11 -11 -10 -10 -10 -10 -10 -10 -10 -10 -10 -10 -10 -10 -10 -10 -10 -10 -9 -9 -9 -9 -8 -8 -8 -8 -8 -8 -8 -8 -7 -7 -7 -7 -7
-12 -12 -12 -12 -12 -11 -11 -11 -11 -11 -11 -11 -11 -11 -11 -11 -11 -10 -10 -10 -11 -11 -10 -10 -10 -10 -10 -10 -9 -9 -9 -9 -8 -8 -9 -9 -9 -9 -8 -8 -8 -8 -7
Wind_Speed
0 1 2 2 3 2 2 3 3 3 3 2 2 1 1 1 1 0 0 0 0 1 1 1 1 0 1 1 1 1 0 0 0 1 1 2 1 0 0 1 1 2 2
3 2 2 2 2 2 2 3 3 3 3 2 2 2 2 1 1 1 1 1 0 0 1 1 0 1 1 1 1 2 1 1 1 1 1 0 1 2 1 1 1 1 2
1 1 1 1 1 2 2 2 3 3 2 2 1 1 1 0 0 1 1 1 1 1 1 1 1 1 1 2 2 2 2 2 2 1 2 2 2 1 2 1 1 0 1
1 1 1 1 1 2 2 2 2 2 2 2 3 3 2 2 2 2 2 2 2 2 2 2 2 1 1 2 3 2 2 3 3 1 1 1 2 2 1 2 1 1 1
2 2 2 2 2 1 1 2 2 2 1 2 3 3 3 2 1 1 2 2 2 2 3 3 3 2 2 2 3 2 2 2 3 3 2 1 1 1 2 2 2 2 2
4 3 4 3 2 1 1 1 1 1 1 1 2 3 3 3 2 2 3 3 2 2 3 3 3 3 2 3 3 3 3 3 3 3 3 3 2 2 2 2 2 3 3
4 4 5 5 4 2 1 1 1 1 1 1 2 3 4 4 4 4 4 3 3 3 3 3 3 3 3 4 3 3 3 3 3 4 3 3 3 2 2 2 2 2 2
4 4 4 4 4 4 2 2 2 2 2 2 3 3 3 3 3 4 4 4 4 4 4 4 4 4 5 4 3 3 4 3 4 4 4 3 3 3 3 3 3 2 3
4 4 4 4 4 4 4 3 2 2 2 2 3 3 3 3 4 4 4 4 4 4 4 4 4 4 5 5 4 4 4 4 4 4 4 4 3 3 3 3 3 4 4
4 4 4 5 5 4 5 4 2 3 3 3 3 3 3 3 3 3 4 4 4 4 4 4 4 5 5 5 4 4 4 5 5 4 4 4 3 3 3 3 3 4 5
4 3 4 4 5 5 5 4 3 3 3 3 3 3 3 3 3 4 4 5 4 4 5 5 5 5 5 5 5 5 5 6 5 5 5 5 5 4 4 4 4 4 4
4 4 4 4 5 5 5 5 4 4 4 4 4 4 4 4 4 4 5 4 5 5 5 5 6 6 5 5 6 6 6 6 7 6 6 6 5 5 5 4 5 4 4
5 5 5 5 5 5 6 6 5 5 4 4 4 4 4 4 4 5 5 5 5 5 5 5 6 6 6 5 6 6 6 6 7 6 7 6 6 6 5 5 5 4 4
5 6 5 5 6 6 6 6 6 5 4 4 4 4 4 4 5 4 4 4 4 4 4 5 5 5 6 6 6 5 6 6 6 6 7 7 7 8 7 6 6 5 4
7 7 6 6 7 7 6 6 6 5 4 4 4 5 4 4 4 4 4 4 4 4 4 4 4 4 5 6 6 6 6 6 6 6 6 7 8 9 8 7 6 6 5
8 8 8 8 8 8 8 7 7 6 5 4 4 4 4 4 4 4 4 4 3 4 4 4 4 4 5 7 8 6 5 6 6 7 7 7 8 10 11 11 10 9 8
8 9 9 8 9 8 8 7 7 6 5 5 4 4 4 4 5 4 4 4 4 4 4 4 4 5 6 8 8 7 5 5 6 7 6 6 7 8 6 8 10 10 12
9 9 9 9 8 8 7 7 6 5 5 5 5 5 4 5 5 4 4 4 3 4 4 5 4 5 6 8 8 8 5 5 6 6 7 7 7 7 7 6 6 7 8
8 8 9 9 8 8 7 6 6 5 5 5 5 5 4 5 5 4 4 3 3 3 4 4 4 4 6 8 8 7 4 5 6 6 6 7 8 10 10 7 7 7 7
8 8 8 7 7 8 6 5 5 5 5 6 6 5 4 5 5 4 4 3 3 3 4 4 3 4 5 7 7 7 4 5 5 5 6 9 9 11 11 8 7 8 7
9 8 7 7 7 8 6 5 6 6 6 6 5 5 4 4 4 3 3 3 3 3 3 4 4 4 5 6 7 7 4 4 4 4 4 5 9 11 11 10 8 10 7
9 8 7 7 8 7 6 6 7 7 6 5 5 5 4 4 3 3 2 2 2 2 2 3 4 3 4 6 6 7 7 6 4 4 4 5 8 9 9 7 8 9 7
8 7 7 8 8 7 6 6 8 7 6 5 5 4 4 3 3 2 2 2 1 1 2 2 3 3 3 4 7 7 7 7 4 3 4 5 5 5 4 5 6 5 4
7 7 7 8 8 8 7 7 7 7 5 5 5 4 4 3 3 3 2 2 2 2 2 3 3 3 3 3 3 3 3 4 3 2 3 4 4 3 2 2 2 2 3
7 7 6 7 8 8 8 8 8 6 5 5 5 5 4 3 3 3 2 2 2 2 2 2 2 2 3 4 5 3 2 1 2 1 1 1 1 1 1 1 1 1 1
7 7 7 7 8 8 8 9 8 6 5 5 5 4 3 3 3 3 3 4 4 5 5 5 4 4 5 6 6 5 4 3 2 0 0 1 1 1 1 1 1 1 1
Wind_Direction
267 87 98 108 103 106 134 146 141 144 137 143 153 167 205 228 281 292 284 174 125 111 97 69 27 43 218 206 185 180 143 258 115 86 56 7 346 234 202 153 139 137 147
30 51 60 94 126 153 167 168 165 168 173 179 182 190 196 220 247 291 330 261 230 194 164 114 272 280 240 210 200 176 204 241 186 150 134 95 337 349 305 253 200 200 139
124 60 50 162 170 176 189 188 188 180 186 180 162 136 102 49 340 291 277 279 254 236 211 207 217 236 223 214 215 203 190 208 239 204 170 167 205 260 307 299 251 249 200
29 25 354 297 242 228 209 197 187 183 185 178 178 176 191 220 244 235 253 289 269 243 215 210 218 227 226 229 224 219 222 200 219 232 231 210 166 175 219 289 297 290 244
9 344 318 276 266 256 239 211 195 182 189 192 193 198 223 236 260 250 253 262 276 247 225 214 210 224 233 234 233 229 218 216 220 221 214 211 243 204 188 226 264 294 270
357 359 359 355 339 335 343 310 221 231 215 206 206 208 224 235 233 245 242 253 260 262 241 226 215 225 234 236 234 228 219 223 227 230 222 205 201 201 194 212 236 250 273
358 359 358 359 352 342 334 326 295 274 264 249 234 229 226 223 223 232 232 244 258 265 245 244 226 232 236 237 234 237 231 226 228 228 233 226 221 217 224 216 236 261 271
350 345 342 345 348 340 320 297 285 276 268 255 256 249 241 233 236 238 241 240 247 252 251 240 234 234 233 237 237 245 245 240 234 236 236 240 230 215 224 213 208 248 263
339 336 340 345 342 338 320 296 279 283 279 275 281 270 254 250 247 244 246 247 255 263 257 250 244 238 234 233 235 242 238 241 241 239 234 241 238 223 224 219 210 206 229
339 340 342 340 336 333 328 313 303 284 283 282 278 288 272 259 255 248 249 254 257 260 259 256 249 246 240 236 235 239 237 235 244 244 236 240 242 229 226 224 223 222 219
327 325 329 333 335 337 338 328 317 305 296 291 287 283 277 273 269 259 255 256 256 255 252 255 251 246 243 241 237 237 235 233 239 243 237 238 235 230 226 225 224 225 219
323 323 324 333 338 337 337 331 314 299 290 283 282 281 278 278 269 267 265 261 259 259 257 256 251 250 248 245 240 239 238 232 234 236 235 237 235 231 230 226 227 223 217
332 329 329 331 329 327 327 323 315 299 293 287 283 283 281 280 275 272 272 266 260 261 261 255 250 252 250 247 246 240 239 236 234 233 233 234 231 233 234 233 226 223 225
328 333 332 330 326 322 320 319 315 308 296 291 282 279 278 278 278 278 277 272 265 260 261 260 255 253 254 249 245 241 241 240 238 235 234 233 230 228 227 234 225 216 216
336 335 333 328 323 321 320 321 317 315 305 290 286 284 285 283 282 283 281 282 280 276 270 266 269 264 253 247 245 243 237 239 240 241 242 240 237 230 231 232 221 210 213
328 329 329 327 324 321 318 317 317 316 312 293 287 292 293 291 287 284 279 280 284 285 280 270 271 270 265 265 256 247 238 237 237 242 244 246 242 239 240 240 233 222 215
321 322 320 317 315 313 310 306 307 310 310 300 295 297 296 295 292 288 284 281 280 280 279 278 275 276 274 272 264 250 246 241 238 239 242 249 247 242 240 241 240 237 235
317 316 314 313 312 310 309 307 309 312 311 309 304 301 299 293 291 286 282 285 284 277 275 276 273 275 273 272 268 257 249 249 245 240 239 244 243 239 237 232 236 237 236
305 305 306 305 312 313 312 313 316 319 319 315 309 301 294 292 288 282 281 281 281 283 282 283 277 271 272 273 271 263 248 249 253 251 247 243 237 240 239 232 234 240 244
314 313 313 317 321 317 315 315 315 317 312 306 302 299 295 285 280 277 275 276 274 276 284 288 288 282 279 279 280 267 243 249 254 255 252 248 243 242 239 227 227 236 240
319 319 321 326 322 322 326 325 324 315 303 304 305 307 304 294 288 281 278 279 277 281 283 288 290 285 287 287 282 276 250 246 253 257 256 252 252 251 249 239 231 237 234
327 329 331 328 327 330 335 332 326 315 313 313 314 314 311 306 309 296 293 286 275 277 286 294 299 296 293 295 291 281 266 265 252 256 258 257 256 254 253 250 239 237 234
328 331 332 332 334 337 339 333 323 323 327 330 326 324 325 324 318 309 309 309 300 292 295 299 300 306 308 304 302 300 283 276 267 261 268 270 266 264 261 253 244 236 219
330 334 340 343 340 339 340 330 325 331 335 336 334 335 336 338 335 332 329 323 312 303 304 303 299 302 315 318 313 305 294 284 279 278 279 288 296 299 300 279 268 239 223
334 339 342 339 335 337 339 335 333 335 340 339 339 341 345 341 336 332 329 326 313 312 308 298 294 302 303 309 318 316 288 273 256 235 232 252 283 291 298 308 287 266 244
336 340 340 338 335 337 338 337 337 339 342 343 342 340 342 342 339 332 330 333 336 334 335 338 333 314 317 321 327 328 328 327 322 295 208 233 254 260 270 275 288 279 260
Height
1494 1495 1495 1496 1496 1497 1498 1498 1499 1500 1501 1502 1502 1502 1502 1502 1502 1502 1502 1503 1503 1504 1504 1505 1505 1506 1506 1507 1508 1509 1510 1512 1513 1514 1514 1516 1518 1519 1520 1522 1523 1525 1527
1491 1492 1493 1493 1493 1494 1495 1496 1496 1497 1498 1498 1499 1499 1499 1499 1499 1499 1499 1500 1500 1501 1501 1501 1502 1503 1503 1504 1505 1506 1507 1508 1510 1511 1511 1512 1515 1515 1516 1518 1519 1521 1523
1489 1490 1490 1490 1490 1491 1491 1492 1493 1494 1494 1495 1496 1496 1496 1496 1496 1496 1496 1496 1497 1497 1498 1498 1499 1499 1500 1501 1502 1503 1504 1505 1506 1508 1509 1510 1510 1511 1512 1514 1515 1517 1519
1488 1488 1488 1487 1487 1488 1489 1489 1490 1491 1491 1492 1492 1492 1491 1491 1492 1492 1492 1493 1493 1494 1494 1495 1495 1496 1496 1497 1498 1499 1501 1502 1503 1504 1506 1507 1507 1509 1508 1510 1512 1513 1515
1487 1487 1486 1485 1485 1485 1486 1486 1486 1487 1487 1487 1488 1488 1488 1488 1489 1489 1489 1490 1490 1490 1490 1491 1491 1492 1493 1493 1494 1495 1497 1498 1499 1500 1502 1503 1504 1505 1506 1505 1507 1509 1511
1486 1485 1485 1484 1484 1483 1483 1483 1483 1483 1483 1484 1484 1484 1484 1485 1485 1485 1485 1485 1485 1485 1486 1486 1487 1488 1488 1489 1490 1491 1492 1494 1495 1497 1498 1499 1500 1501 1502 1502 1503 1504 1506
1486 1484 1483 1482 1481 1481 1481 1481 1481 1480 1481 1481 1481 1481 1481 1481 1481 1481 1481 1481 1481 1481 1481 1482 1482 1483 1484 1485 1486 1487 1487 1489 1490 1492 1493 1495 1496 1498 1499 1500 1500 1501 1501
1485 1483 1482 1481 1480 1479 1479 1478 1478 1477 1477 1477 1477 1478 1478 1477 1477 1477 1477 1477 1477 1477 1478 1478 1478 1479 1480 1480 1481 1482 1483 1484 1486 1487 1488 1490 1491 1493 1495 1496 1497 1497 1498
1484 1483 1481 1480 1478 1477 1477 1476 1475 1475 1474 1474 1474 1474 1473 1473 1473 1473 1473 1473 1473 1473 1473 1474 1474 1475 1475 1476 1477 1477 1478 1480 1481 1482 1483 1485 1486 1488 1490 1492 1494 1496 1494
1483 1482 1480 1478 1477 1476 1474 1474 1473 1472 1471 1471 1470 1470 1469 1469 1469 1469 1468 1468 1468 1468 1469 1469 1470 1470 1471 1471 1472 1472 1474 1475 1476 1477 1478 1480 1482 1484 1485 1487 1489 1491 1491
1483 1481 1479 1477 1475 1474 1472 1471 1470 1469 1468 1468 1467 1466 1465 1465 1465 1464 1464 1464 1464 1464 1464 1464 1464 1465 1465 1466 1467 1467 1468 1469 1471 1472 1474 1475 1477 1479 1480 1482 1483 1485 1486
1482 1480 1477 1475 1473 1471 1469 1468 1467 1466 1465 1464 1463 1462 1461 1461 1460 1459 1459 1459 1459 1459 1459 1459 1459 1460 1460 1461 1461 1462 1463 1464 1465 1467 1469 1470 1472 1473 1475 1476 1478 1479 1481
1480 1478 1475 1473 1471 1469 1467 1465 1464 1462 1461 1460 1459 1458 1457 1456 1455 1455 1454 1454 1454 1454 1454 1454 1454 1454 1455 1455 1456 1457 1458 1459 1460 1462 1463 1465 1467 1468 1469 1471 1472 1474 1475
1479 1476 1473 1471 1468 1466 1464 1462 1460 1459 1457 1456 1455 1454 1453 1452 1451 1451 1450 1449 1449 1448 1448 1449 1449 1449 1450 1450 1451 1451 1453 1454 1455 1456 1458 1459 1461 1462 1464 1465 1467 1468 1470
1476 1474 1471 1468 1466 1463 1461 1459 1457 1455 1454 1452 1451 1450 1449 1448 1447 1446 1445 1445 1444 1443 1444 1444 1444 1444 1445 1445 1446 1446 1447 1448 1449 1451 1452 1454 1455 1456 1458 1460 1461 1462 1464
1474 1471 1469 1466 1463 1460 1457 1455 1453 1451 1450 1448 1447 1446 1445 1444 1443 1442 1441 1440 1439 1439 1439 1439 1439 1439 1439 1440 1441 1441 1442 1443 1444 1445 1446 1448 1449 1450 1452 1453 1455 1457 1459
1473 1469 1466 1463 1460 1456 1454 1451 1449 1447 1445 1444 1442 1442 1441 1439 1439 1438 1437 1436 1435 1435 1435 1434 1434 1434 1434 1435 1436 1437 1437 1438 1438 1439 1440 1441 1443 1445 1446 1447 1449 1450 1452
1470 1467 1463 1460 1456 1453 1450 1447 1445 1443 1441 1440 1438 1437 1436 1435 1434 1433 1432 1432 1431 1431 1430 1430 1430 1430 1430 1431 1431 1432 1433 1433 1433 1434 1435 1436 1437 1438 1440 1441 1442 1444 1445
1468 1464 1460 1457 1453 1450 1447 1444 1441 1439 1437 1436 1434 1433 1432 1431 1430 1429 1428 1428 1427 1427 1426 1426 1426 1426 1426 1426 1427 1427 1428 1428 1428 1429 1429 1430 1431 1432 1434 1436 1436 1437 1438
1465 1461 1457 1454 1450 1447 1444 1440 1437 1435 1433 1432 1430 1429 1428 1427 1426 1425 1424 1424 1423 1423 1423 1422 1422 1422 1421 1422 1422 1423 1423 1423 1423 1423 1424 1424 1425 1427 1428 1429 1430 1430 1432
1461 1458 1454 1450 1447 1444 1441 1437 1434 1432 1430 1428 1426 1425 1424 1423 1422 1422 1421 1420 1420 1419 1419 1418 1418 1418 1418 1418 1418 1418 1419 1418 1418 1418 1419 1419 1420 1422 1423 1424 1424 1425 1427
1458 1455 1451 1448 1445 1442 1438 1435 1431 1429 1427 1425 1423 1421 1420 1420 1419 1418 1417 1417 1416 1416 1415 1414 1414 1413 1413 1413 1413 1413 1414 1414 1414 1414 1414 1415 1416 1416 1417 1418 1418 1420 1422
1456 1453 1450 1446 1443 1440 1436 1432 1429 1427 1424 1422 1419 1418 1417 1416 1415 1415 1414 1413 1413 1412 1411 1411 1410 1409 1409 1409 1409 1409 1410 1410 1410 1410 1410 1411 1411 1412 1412 1412 1413 1414 1416
1455 1451 1448 1444 1441 1438 1435 1431 1428 1425 1422 1419 1417 1415 1414 1413 1412 1412 1411 1410 1410 1409 1409 1408 1407 1407 1406 1406 1406 1406 1406 1406 1406 1406 1407 1407 1407 1407 1407 1407 1408 1409 1411
1453 1450 1447 1443 1439 1436 1433 1430 1427 1424 1421 1418 1416 1414 1412 1411 1410 1410 1409 1408 1408 1408 1407 1406 1405 1404 1403 1404 1404 1403 1402 1402 1402 1403 1403 1403 1402 1402 1402 1403 1403 1405 1406
1452 1448 1445 1442 1438 1435 1432 1429 1425 1423 1420 1417 1415 1413 1411 1410 1409 1408 1407 1407 1406 1406 1405 1404 1403 1402 1402 1402 1401 1401 1400 1400 1400 1400 1399 1399 1399 1399 1399 1399 1400 1400 1402